Location: Newark
(21.1200°N, 73.4000°E)
Time: 06:14:48
(UTC+00:00)

Vanguard 1 Rocket - All Passes

Search period start: 18 January 2020 00:00
Search period end: 28 January 2020 00:00
Orbit: 650 x 4226 km, 34.3° (Epoch: 17 January)

Date Brightness Start Highest point End Pass type
(mag) Time Alt. Az. Time Alt. Az. Time Alt. Az.
18 Jan - 03:53:24 10° SW 04:00:01 55° SE 04:12:46 10° ENE daylight
18 Jan - 06:17:45 10° W 06:27:45 61° NNW 06:47:40 10° ENE daylight
18 Jan - 08:45:05 10° WNW 09:00:55 55° N 09:26:15 10° E daylight
18 Jan - 11:13:54 10° WNW 11:36:40 79° NNE 12:02:15 10° ESE daylight
18 Jan - 13:45:21 10° WNW 14:10:18 57° SW 14:30:37 10° SSE visible
18 Jan - 16:27:40 10° W 16:40:00 16° SW 16:50:02 10° SSW visible
19 Jan - 02:44:21 10° S 02:49:22 26° SE 02:57:09 10° E daylight
19 Jan - 05:06:42 10° WSW 05:14:42 76° NNW 05:31:12 10° ENE daylight
19 Jan - 07:32:57 10° WNW 07:45:30 53° N 08:08:18 10° ENE daylight
19 Jan - 10:00:55 10° WNW 10:20:19 66° NNE 10:46:48 10° E daylight
19 Jan - 12:30:30 10° WNW 12:55:10 76° SW 13:18:36 10° SE visible
19 Jan - 15:05:56 10° W 15:26:30 31° SW 15:42:40 10° S visible
20 Jan - 03:56:17 10° SW 04:02:48 73° SE 04:15:40 10° ENE daylight
20 Jan - 06:21:17 10° W 06:31:11 54° N 06:50:35 10° ENE daylight
20 Jan - 08:48:29 10° WNW 09:04:19 57° NNE 09:29:46 10° E daylight
20 Jan - 11:16:51 10° WNW 11:39:19 87° NNE 12:05:06 10° ESE daylight
20 Jan - 13:48:35 10° WNW 14:12:22 48° SW 14:32:34 10° SSE visible
20 Jan - 16:37:38 10° WSW 16:42:31 11° SW 16:47:01 10° SW visible
21 Jan - 02:46:40 10° SSW 02:51:54 38° SE 03:00:41 10° ENE daylight
21 Jan - 05:10:05 10° W 05:17:57 63° NNW 05:33:55 10° ENE daylight
21 Jan - 07:36:30 10° WNW 07:49:03 51° N 08:11:41 10° ENE daylight
21 Jan - 10:04:01 10° WNW 10:23:18 72° NNE 10:49:59 10° ESE daylight
21 Jan - 12:33:29 10° WNW 12:57:24 66° SW 13:20:53 10° SE visible
21 Jan - 15:10:44 10° W 15:28:42 24° SW 15:43:36 10° S visible
22 Jan - 01:38:40 10° SSE 01:41:32 14° SE 01:45:04 10° E daylight
22 Jan - 03:59:23 10° WSW 04:05:47 86° NNW 04:18:28 10° ENE daylight
22 Jan - 06:24:52 10° WNW 06:34:43 50° N 06:53:41 10° ENE daylight
22 Jan - 08:51:46 10° WNW 09:07:35 60° NNE 09:33:12 10° E daylight
22 Jan - 11:19:48 10° WNW 11:41:50 84° SSW 12:07:43 10° SE daylight
22 Jan - 13:52:12 10° WNW 14:14:29 39° SW 14:34:12 10° SSE visible
23 Jan - 02:49:19 10° SW 02:54:37 54° SE 03:03:53 10° ENE daylight
23 Jan - 05:13:35 10° W 05:21:22 53° NNW 05:36:45 10° ENE daylight
23 Jan - 07:39:58 10° WNW 07:52:31 52° N 08:15:11 10° E daylight
23 Jan - 10:07:04 10° WNW 10:26:07 80° NNE 10:52:57 10° ESE daylight
23 Jan - 12:36:38 10° WNW 12:59:37 56° SW 13:22:54 10° SSE visible
23 Jan - 15:16:50 10° W 15:31:08 18° SW 15:43:39 10° SSW visible
24 Jan - 01:40:13 10° S 01:44:07 23° SE 01:49:29 10° E daylight
24 Jan - 04:02:41 10° WSW 04:08:59 67° NNW 04:21:13 10° ENE daylight
24 Jan - 06:28:27 10° WNW 06:38:15 47° N 06:56:57 10° ENE daylight
24 Jan - 08:54:58 10° WNW 09:10:42 65° NNE 09:36:31 10° ESE daylight
24 Jan - 11:22:47 10° WNW 11:44:15 74° SW 12:10:04 10° SE daylight
24 Jan - 13:56:19 10° W 14:16:43 31° SW 14:35:27 10° S visible
25 Jan - 02:52:16 10° SW 02:57:30 78° SSE 03:06:53 10° ENE daylight
25 Jan - 05:17:10 10° W 05:24:52 47° N 05:39:42 10° ENE daylight
25 Jan - 07:43:20 10° WNW 07:55:53 54° NNE 08:18:41 10° E daylight
25 Jan - 10:10:04 10° WNW 10:28:47 89° NNE 10:55:40 10° ESE daylight
25 Jan - 12:40:01 10° WNW 13:01:52 47° SW 13:24:37 10° SSE visible
25 Jan - 15:25:51 10° WSW 15:33:56 12° SW 15:41:30 10° SSW visible
26 Jan - 01:42:30 10° SSW 01:46:50 35° SE 01:53:08 10° ENE daylight
26 Jan - 04:06:09 10° W 04:12:20 53° NNW 04:24:00 10° ENE daylight
26 Jan - 06:31:58 10° WNW 06:41:47 46° N 07:00:22 10° ENE daylight
26 Jan - 08:58:05 10° WNW 09:13:39 72° NNE 09:39:37 10° ESE daylight
26 Jan - 11:25:54 10° WNW 11:46:39 63° SW 12:12:08 10° SE daylight
26 Jan - 14:01:13 10° W 14:19:09 24° SW 14:36:09 10° S visible
27 Jan - 00:34:24 10° SSE 00:36:23 13° SE 00:38:35 10° ESE visible
27 Jan - 02:55:27 10° WSW 03:00:37 76° NNW 03:09:45 10° ENE daylight
27 Jan - 05:20:47 10° WNW 05:28:25 42° N 05:42:49 10° ENE daylight
27 Jan - 07:46:36 10° WNW 07:59:06 58° NNE 08:22:07 10° E daylight
27 Jan - 10:13:06 10° WNW 10:31:23 81° SSW 10:58:07 10° SE daylight
27 Jan - 12:43:47 10° W 13:04:14 38° SW 13:26:00 10° SSE visible
